Starlink 4405

operational
NORAD ID: 53201 Int'l Des: 2022-084 Owner: SPXS Country: US Constellation: starlink
LEOCIRCULARRETROGRADESSO

Über Starlink 4405

Beschreibung wird geladen...

Live-Position

3D-Globus wird geladen...

Nächste Überflüge

Höhenverlauf

Altitude vs Time

uPlot chart will show altitude changes over time

Zweizeiliger Elementsatz

1 53201U 22084N 25299.44989501 .00005034 00000-0 35281-3 0 9998
2 53201 97.6014 358.9543 0000613 90.9815 269.1482 15.05652214179188
Epoch: 26. Okt. 2025 • Age: 7 hours

Aktueller Status

Höhe 555.6 km
Geschwindigkeit 7.59 km/s
Subsatellitenpunkt 42.70°N, 115.83°W
Startdatum 22. Juli 2022
Alter 3.2 years
Typ internet

Technische Details

Klassifizierung Payload
Masse 297.00 kg
Trockenmasse 275.00 kg
Gesamtmasse 297.00 kg
Länge 0.20 m
Durchmesser 2.80 m
Spannweite 9.00 m
Form Box + pan
Hersteller SPXS
Bus-Typ Starlink
Phasenstatus In Orbit
Besitzer/Staat SPXS/US

Große Konstellationen

Loading constellations...